Meath Environmental Platform

Observations

Time Sensor AQI SAQ Temp °C Hum % Pres Pa CO μg/m³ H₂S μg/m³ NO μg/m³ NO₂ μg/m³ O₃ μg/m³ SO₂ μg/m³ CO₂e PPM VOC PPM PM1 μg/m³ PM2.5 μg/m³ PM4 μg/m³ PM10 μg/m³ TPS µm
Thursday 13 August 2026
02:47 Trim Market St 3 21.3 69 54,843 0.03 0.75 1.07 22.15 48.67 0 2.85 5.05 7.53
02:46 Trim Patrick St 2 20.7 74 38,460 0.01 14.76 1.12 28.38 37.9 6.52 6.29 11.34 12.47
02:46 Trim Market St 3 21.3 69 54,950 0.04 0.77 1.08 20.57 46.97 0 2.14 4.09 6.26
02:45 Trim Patrick St 2 20.7 73 38,460 0 16.52 1.2 39.75 27.77 5.04 8 12.79 14.07
02:45 Trim Market St 3 21.3 69 55,068 0.04 1.99 1.07 26.6 49.66 0 3.56 5.55 8.16
02:44 Trim Patrick St 2 20.7 73 38,460 0 16.74 1.18 36 28.44 5.54 6.29 9.94 10.94
02:44 Trim Market St 3 21.3 69 55,169 0.02 0.72 1.06 23.68 48.63 0 2.85 4.09 6.26
02:43 Trim Patrick St 2 20.7 73 38,460 0 18.55 1.11 49.85 27.85 5.54 7.14 12.13 13.34
02:43 Trim Market St 3 21.3 69 55,254 0.04 1.88 1.06 26.53 48.31 0 4.28 5.07 7.53
02:42 Trim Patrick St 2 20.7 73 38,460 0 15.71 1.1 25.12 42.89 6.28 8 12.1 13.31
02:42 Trim Market St 3 21.3 68 55,347 0.03 1.17 1.05 24.37 47.53 0 3.56 5.57 8.17
02:41 Trim Patrick St 2 20.7 73 38,460 0 13.18 1.11 38.1 27.62 5.25 8 11.38 12.52
02:41 Trim Market St 3 21.3 68 55,452 0.03 1.22 1.05 25.53 48.37 0 2.85 4.59 6.89
02:40 Trim Patrick St 2 20.7 73 38,459 0 13.68 1.1 24.22 40.6 6.21 6.29 10.68 11.75
02:40 Trim Market St 3 21.3 68 55,538 0.03 1.56 1.05 25.46 49.69 0 3.56 5.58 8.8
02:39 Trim Patrick St 2 20.7 73 38,459 0 14.47 1.09 31.83 34.21 6.02 7.14 12.11 13.32
02:38 Trim Patrick St 2 20.7 73 38,459 0 14.6 1.1 29.07 34.65 6.01 6.29 9.98 10.98
02:38 Trim Market St 3 21.3 68 55,747 0.02 2.7 1.06 30.88 45.92 0 3.56 5.1 8.17
02:37 Trim Patrick St 2 20.7 72 38,459 0 17.24 1.09 40.87 29.99 5.61 5.43 10.02 11.02
02:37 Trim Market St 3 21.3 68 55,854 0.03 1.48 1.06 24.77 48.5 0 2.85 4.62 6.89